Theta_e
343 342 341 341 340 337 335 336 337 335 335 336 336 336 337 337 338 339 339 340 339 338 339 339 339 339 339 338 338 338 337 333 331 330 328 329 332 333 333 333 332 331 326 321 318 318 328 334 334 336 336 337 336 334 332 333 334 333 332 331 330 331
344 343 342 342 341 339 334 335 338 336 334 334 336 337 337 336 336 337 337 338 338 338 339 339 338 340 340 339 338 337 337 334 332 332 329 328 330 333 334 333 332 330 326 323 320 320 329 334 335 336 336 337 337 337 335 334 334 333 332 330 330 331
345 342 343 342 341 341 334 334 337 336 335 335 336 335 335 336 337 337 335 335 337 338 339 340 338 338 340 339 338 337 337 335 333 332 330 327 328 332 334 333 333 331 329 327 325 324 329 335 336 337 337 337 337 337 336 335 334 333 331 328 330 331
344 342 343 343 343 342 334 335 338 337 337 336 336 336 335 338 340 338 334 333 337 340 340 339 337 336 339 339 338 336 336 335 333 332 332 329 326 330 334 333 333 331 332 334 335 332 331 333 334 337 337 336 336 336 336 335 334 333 331 329 330 331
343 342 343 343 343 341 335 338 341 339 340 337 336 336 337 340 340 339 336 334 338 340 340 340 339 338 340 339 337 335 334 334 333 332 332 330 326 328 332 333 333 332 333 336 339 337 334 331 332 337 338 336 336 337 336 335 334 332 330 328 330 331
344 344 344 342 342 341 338 340 340 340 340 337 337 338 340 341 340 339 338 337 338 339 339 339 340 339 339 339 338 335 333 332 332 331 331 330 327 329 332 334 333 332 332 336 339 339 336 332 334 337 336 335 336 335 336 335 334 333 330 327 329 330
344 344 343 342 342 341 340 340 339 340 340 338 338 339 340 341 340 339 338 338 337 338 339 339 339 339 339 339 338 337 335 334 334 333 332 330 330 331 332 337 337 332 331 336 339 338 336 335 334 336 335 335 335 335 335 336 335 333 330 327 328 330
344 343 343 342 342 341 339 340 340 340 340 340 340 339 340 340 340 339 338 337 336 337 339 339 339 339 339 338 337 337 337 336 336 336 335 331 330 332 331 337 340 336 334 336 338 337 336 335 334 335 334 335 335 334 335 336 334 333 331 328 328 329
344 343 343 342 342 342 340 340 341 340 340 340 340 339 340 340 340 340 339 339 338 338 339 339 340 340 339 338 336 336 336 335 336 337 336 333 330 332 331 334 338 337 336 337 337 336 334 333 333 333 334 334 334 335 335 335 334 334 332 329 327 327
344 343 343 342 342 342 340 340 340 341 340 340 340 340 340 340 340 340 340 339 339 339 339 339 340 339 339 338 335 335 335 334 334 335 335 334 333 333 331 332 336 337 336 337 336 335 334 333 332 332 333 334 335 336 335 334 335 334 333 332 328 324
343 342 342 343 343 342 341 341 341 341 341 342 341 341 340 339 339 340 340 340 339 340 339 339 339 339 338 338 337 335 335 334 334 334 333 333 333 334 332 330 334 336 337 336 335 334 333 332 331 331 332 334 335 336 335 334 335 335 334 334 330 324
344 343 343 343 342 342 343 343 343 342 342 341 341 341 340 338 338 339 339 339 339 339 340 339 339 339 338 338 338 337 336 335 335 335 333 332 333 334 334 332 334 335 337 336 334 334 333 332 331 330 332 334 335 335 335 335 335 335 335 334 332 328
344 344 344 343 343 343 343 343 343 343 343 342 341 341 340 339 339 339 338 339 339 338 339 339 339 338 337 337 337 337 337 337 337 336 335 334 334 333 334 334 334 334 336 336 335 334 333 332 331 330 331 334 334 334 335 335 336 335 334 334 333 331
345 345 344 343 343 344 343 342 342 343 342 342 340 339 339 338 338 337 337 337 337 337 338 338 338 338 337 337 337 337 338 338 337 336 336 336 335 334 334 334 334 333 335 336 335 335 334 333 331 330 332 333 334 335 335 335 336 335 335 334 333 332
345 345 345 344 344 343 342 342 342 342 342 341 340 338 338 338 337 334 336 337 337 337 337 337 337 337 338 338 338 338 338 338 337 336 337 337 336 336 334 333 333 333 334 336 336 335 334 334 332 331 333 334 335 335 335 335 336 336 335 335 333 333
345 345 345 344 344 343 342 342 342 342 342 341 340 338 337 337 337 334 336 337 337 337 337 337 337 337 338 338 339 338 338 337 337 337 337 336 336 337 335 333 333 334 334 335 336 335 335 334 333 333 335 335 336 335 335 336 336 336 335 334 333 332
345 344 344 343 343 342 342 341 340 341 342 341 340 338 336 335 336 335 336 336 336 336 336 337 338 338 338 338 338 337 337 337 337 337 338 337 337 338 336 334 333 335 334 334 334 333 332 332 332 334 335 335 335 335 335 335 335 335 334 334 333 332
344 344 344 343 342 342 342 341 340 341 341 341 341 340 337 335 335 336 337 336 335 335 335 335 336 337 338 338 338 337 336 336 337 337 338 338 338 338 337 334 333 334 334 333 333 332 331 332 332 333 333 334 335 335 334 335 334 334 334 333 333 333
343 343 344 344 343 343 343 341 341 341 341 341 341 340 338 337 337 337 337 336 335 335 336 335 335 336 337 337 337 337 337 336 336 336 336 337 337 336 336 335 333 334 334 333 332 333 333 333 333 332 333 334 334 334 334 335 334 334 334 333 333 333
343 343 343 343 343 342 342 342 341 341 340 341 340 340 339 338 338 338 337 337 336 336 336 335 335 336 337 337 336 337 337 337 336 336 334 334 335 335 335 334 334 334 334 334 334 334 333 333 333 332 333 334 334 334 335 335 334 334 334 333 333 333
343 343 342 342 342 342 341 341 341 341 341 341 340 340 339 339 338 338 338 338 337 337 336 334 335 336 336 336 336 336 336 336 336 336 335 334 333 334 334 334 334 334 334 335 336 335 333 332 332 332 333 334 333 334 335 336 335 334 334 333 333 333
342 342 342 341 341 341 340 340 340 340 340 339 340 339 339 339 338 338 338 338 337 338 337 336 336 335 335 335 335 335 336 336 336 336 336 335 334 334 335 335 335 335 335 335 336 335 333 332 332 332 334 333 333 333 334 335 335 334 334 334 333 332
342 342 342 341 341 340 341 340 340 340 340 339 339 339 339 339 338 338 338 338 338 338 337 336 336 336 335 335 335 335 336 336 335 335 336 336 335 335 334 335 336 336 335 334 335 333 333 333 332 333 334 333 334 335 335 334 334 334 334 334 333 332
341 341 341 340 339 339 339 339 340 339 338 339 339 340 339 339 339 339 339 338 338 337 337 336 336 336 335 336 335 334 335 335 335 335 335 336 336 335 335 335 335 335 335 335 334 332 333 334 332 333 333 333 334 334 335 334 333 334 334 334 333 331
341 341 341 340 339 339 339 339 339 340 338 339 340 339 339 339 339 339 339 339 338 338 337 337 337 337 337 336 334 334 334 334 335 335 335 336 336 335 336 335 335 334 334 334 334 333 333 334 333 333 333 334 335 334 335 335 334 334 334 334 333 332
340 341 340 340 339 339 339 339 339 339 340 340 341 340 339 339 339 339 340 339 339 338 338 337 337 337 337 336 335 335 334 334 335 335 335 335 336 335 335 335 334 334 334 334 333 332 333 334 333 333 333 334 335 334 334 335 334 334 334 333 332 332
340 340 340 339 339 338 338 338 338 338 340 340 341 340 340 339 339 339 340 340 340 339 339 339 337 337 337 337 336 336 334 333 333 334 335 334 335 335 334 335 334 333 334 333 332 331 332 333 332 333 333 333 334 334 334 334 334 335 334 333 332 332
339 339 339 339 339 339 338 338 338 338 339 339 340 340 340 339 339 338 339 340 339 339 339 340 339 338 338 337 337 337 335 334 334 334 334 334 334 334 334 335 334 333 333 333 331 331 332 332 332 333 333 333 334 334 333 333 333 334 334 333 333 331
339 339 339 339 339 339 339 338 338 338 338 339 339 339 339 339 339 338 339 339 339 339 339 339 339 339 339 338 337 337 336 336 335 334 334 334 335 335 334 334 334 333 333 332 332 331 331 331 332 334 334 334 334 333 334 334 333 333 335 335 333 332
339 339 339 339 339 339 339 338 338 338 338 338 338 338 338 338 338 338 338 339 339 338 338 338 339 338 338 338 337 337 336 337 336 335 335 334 334 335 334 334 334 334 333 333 333 331 330 331 332 333 333 334 334 332 333 335 333 333 334 334 334 332
339 339 339 340 339 339 339 339 338 338 338 338 338 338 337 336 336 337 337 338 338 337 337 337 338 338 338 338 337 337 337 336 336 336 335 335 335 335 334 334 334 334 334 334 333 333 332 331 331 331 331 332 333 332 332 333 334 333 333 333 334 333
338 339 339 339 339 339 339 339 339 338 338 338 338 337 337 335 334 335 336 338 338 338 337 336 337 338 337 336 337 337 337 336 336 335 335 335 335 335 335 334 334 334 334 334 334 333 333 331 330 330 331 331 331 332 331 331 332 332 332 333 333 333
338 338 338 338 338 338 338 338 339 339 338 339 338 337 337 335 334 334 334 335 337 337 338 337 337 336 333 333 335 335 336 336 336 336 335 334 334 334 335 335 335 334 334 333 333 333 333 332 332 331 331 331 331 332 331 331 332 333 331 331 332 332
335 335 335 335 336 337 337 337 338 338 338 337 337 336 336 336 335 336 336 335 335 336 337 337 336 332 329 330 333 335 335 335 336 336 335 334 334 334 334 334 334 335 333 333 333 333 333 333 333 332 332 332 332 333 333 332 333 333 331 331 331 331
333 333 333 333 334 334 335 336 336 336 336 336 335 335 335 336 335 336 336 336 335 336 336 336 335 331 329 330 331 333 334 335 336 336 335 335 334 334 334 334 334 334 334 333 333 333 333 333 332 332 333 333 333 334 334 332 333 333 331 331 331 329
331 331 332 332 333 333 333 334 334 334 335 334 334 334 334 334 335 335 335 335 335 336 336 335 334 333 332 331 329 330 332 334 336 336 336 335 334 334 333 334 334 333 333 333 333 333 333 333 332 332 333 333 333 333 333 332 332 332 331 331 331 330
330 330 331 331 332 332 333 333 333 333 334 333 333 333 333 333 334 334 334 335 335 335 335 334 333 333 334 332 330 330 331 332 334 335 336 335 335 334 334 334 334 333 333 332 332 332 332 333 333 333 334 333 332 332 331 331 332 332 332 331 330 331
Wind_Speed
15 14 13 13 11 9 10 11 12 13 14 14 14 15 15 15 13 11 10 10 11 11 10 8 8 7 6 6 7 7 7 10 10 7 6 6 5 4 5 6 5 4 4 7 9 15 18 17 15 13 13 13 13 14 13 13 13 13 14 14 15 15
16 16 15 15 12 9 11 13 12 12 12 13 13 12 12 11 10 9 8 9 11 9 9 7 7 7 6 6 7 8 8 10 10 8 6 6 5 4 5 6 6 5 5 7 10 14 16 15 14 12 12 11 11 12 11 13 15 14 13 13 15 14
18 19 18 16 13 11 12 14 13 11 11 12 12 11 11 10 9 9 6 9 11 9 8 7 7 6 6 6 7 8 9 11 11 9 8 7 7 5 4 6 7 6 6 7 9 12 14 14 12 11 10 9 10 11 10 12 13 12 11 13 15 13
18 19 19 16 15 13 12 15 13 11 12 12 12 11 11 11 11 10 7 9 12 10 9 8 9 6 7 10 8 8 10 12 12 11 10 9 8 7 6 7 8 8 8 8 8 8 9 9 7 7 8 9 9 9 10 11 12 12 11 13 15 12
16 17 17 16 17 15 13 15 15 13 14 14 14 13 12 12 12 12 9 11 12 11 10 8 10 9 10 12 10 9 11 13 13 12 11 11 10 10 9 8 10 11 10 9 10 9 8 5 1 4 5 6 6 6 10 12 13 12 11 13 15 12
14 14 13 16 18 16 14 16 16 15 16 16 16 14 13 11 10 12 12 13 14 14 13 10 11 14 14 13 10 9 10 13 13 12 13 12 12 12 11 10 11 13 11 10 9 11 12 6 2 1 3 6 6 7 10 11 10 10 9 11 14 12
14 14 13 16 19 17 14 15 16 15 16 16 17 14 12 10 8 14 16 15 17 16 14 13 14 16 18 16 13 11 9 10 10 11 14 14 12 13 14 11 12 14 13 11 10 12 12 7 5 6 6 6 7 8 11 10 9 8 8 10 13 12
14 14 15 16 18 17 12 13 15 15 14 12 13 12 11 11 10 16 20 17 18 17 16 17 18 19 20 19 16 14 13 12 11 12 14 15 14 14 15 14 14 16 15 13 13 11 11 8 8 8 8 7 6 7 10 11 9 8 8 9 12 12
14 13 15 16 15 13 10 12 15 14 12 9 10 11 10 13 14 16 20 20 19 19 20 21 20 20 21 21 18 16 16 16 16 15 13 14 15 16 17 17 16 17 16 16 15 12 10 10 10 9 8 8 7 7 9 12 10 8 10 10 11 12
15 15 14 14 13 10 10 11 13 13 13 10 10 12 12 13 14 16 19 22 21 21 23 22 19 19 20 21 19 17 17 18 18 18 16 14 15 17 19 20 18 18 18 18 17 14 12 11 12 11 10 9 9 9 9 12 13 11 11 10 8 9
15 15 14 13 12 10 9 10 11 13 13 10 10 12 12 12 14 17 20 21 21 22 22 21 19 18 18 18 18 18 18 18 19 18 18 17 17 18 21 22 20 20 20 17 16 15 13 13 14 12 11 10 10 10 9 10 14 13 10 7 7 8
12 14 13 12 11 9 9 11 11 12 13 11 10 10 11 12 14 17 19 19 18 20 22 22 21 19 17 17 17 18 17 18 20 18 17 18 18 20 21 22 22 20 21 17 14 15 14 15 15 13 12 12 11 10 10 10 13 14 10 7 7 8
11 12 12 11 11 9 9 11 10 10 11 10 10 11 11 11 12 14 16 17 17 19 23 24 23 21 18 17 17 18 16 17 20 19 19 18 18 20 19 21 21 19 21 18 15 16 15 16 16 13 12 12 12 12 11 10 12 12 11 9 7 7
12 12 12 11 10 9 9 10 9 9 10 9 10 12 11 9 10 12 12 13 15 17 21 22 21 20 17 15 18 18 17 18 19 20 20 18 18 18 18 20 19 18 20 18 15 18 16 16 16 13 13 13 12 12 11 11 12 11 12 12 9 7
13 13 13 12 11 11 10 10 10 8 9 9 10 11 10 8 9 11 10 9 10 13 17 19 18 18 16 15 17 17 16 17 19 20 20 19 19 18 17 19 19 19 20 18 15 18 17 16 15 13 13 13 12 13 11 10 12 11 10 11 11 10
13 13 13 13 12 11 8 9 10 9 9 9 9 9 9 9 8 11 10 8 9 11 14 15 15 16 18 17 15 14 16 17 19 19 18 19 19 19 19 20 20 17 17 18 16 16 16 14 11 11 13 12 11 14 11 9 12 11 9 10 11 12
11 10 11 11 9 8 6 8 9 9 9 8 8 8 7 11 11 11 11 8 9 11 12 13 13 14 17 18 15 14 16 16 18 18 16 18 19 20 21 22 21 16 13 15 10 8 10 11 9 9 11 10 9 10 11 10 11 9 9 10 10 11
9 8 8 8 7 6 5 7 7 7 7 7 8 7 8 13 12 10 11 10 10 11 11 11 12 12 14 17 15 14 16 16 17 17 16 18 19 20 20 21 21 18 15 14 10 7 7 8 8 7 7 9 8 6 9 11 11 8 8 9 9 11
9 9 8 8 7 6 6 6 6 6 6 6 7 7 8 11 10 9 11 11 10 10 10 10 11 12 14 15 14 13 15 16 15 16 18 18 19 20 19 20 21 20 19 16 14 11 6 4 7 9 8 11 9 6 7 10 10 8 7 8 9 11
9 9 9 9 8 7 7 7 6 6 6 6 6 7 7 8 9 9 9 10 10 10 9 9 10 11 13 14 14 13 13 15 15 16 18 19 19 20 19 20 21 21 19 16 14 12 9 8 9 11 10 11 9 6 7 8 8 8 7 9 10 10
9 8 8 8 7 7 7 7 7 7 7 6 6 6 8 9 9 9 9 10 10 10 10 10 10 11 12 13 14 15 14 14 15 16 18 20 20 20 19 19 20 20 19 16 12 10 12 12 10 8 7 8 8 6 8 8 7 7 7 9 11 10
9 7 6 6 6 5 5 5 5 5 4 4 5 6 8 8 8 9 10 10 10 10 11 11 11 12 14 14 14 15 15 15 16 17 18 19 19 20 19 19 18 18 18 17 12 10 13 13 11 9 7 7 5 4 6 8 8 8 8 9 10 11
7 6 6 5 5 5 5 5 4 4 3 4 3 4 6 6 7 9 10 10 10 11 12 12 13 14 15 15 16 16 16 17 17 17 17 17 18 20 20 20 18 17 18 18 13 11 15 16 15 13 7 4 3 3 4 7 9 9 9 9 10 11
5 5 5 5 5 4 3 4 5 4 5 5 3 3 4 5 7 9 9 10 12 12 13 14 14 15 15 16 17 18 18 18 18 17 17 18 18 19 20 20 20 19 18 17 16 14 15 19 20 16 7 2 3 3 2 5 9 10 10 9 9 11
4 3 4 5 4 4 3 4 5 5 5 5 4 5 6 7 8 9 10 12 13 14 15 16 16 16 16 16 16 17 18 18 19 18 18 19 19 19 20 20 20 20 19 19 17 15 14 18 21 19 11 3 3 3 2 7 9 8 11 12 10 11
2 2 3 4 4 5 5 5 5 6 6 6 6 7 8 7 7 9 11 12 13 14 14 16 17 16 16 17 16 16 17 17 19 19 19 20 20 21 21 20 21 21 21 20 16 13 14 17 20 20 16 7 3 3 2 8 8 3 8 11 10 12
2 3 3 4 5 5 6 6 6 6 7 7 6 5 4 4 5 7 10 12 14 14 14 15 16 16 17 17 16 16 16 16 18 19 19 20 20 22 22 22 22 21 21 19 17 16 16 18 18 19 20 13 4 2 4 7 5 2 4 6 9 12
3 4 5 5 5 6 6 6 6 6 7 8 8 7 4 2 4 8 11 14 14 13 13 15 15 15 16 17 17 16 16 16 17 18 19 21 21 22 22 23 22 20 20 20 19 19 16 16 17 18 20 15 7 4 6 6 5 5 5 4 5 7
4 4 5 5 6 6 7 7 7 7 8 8 8 6 4 3 6 11 14 15 14 13 12 13 15 15 15 17 17 16 16 17 17 17 18 20 21 22 22 23 22 19 19 19 19 18 16 16 17 17 18 15 10 8 6 6 6 5 4 4 5 4
5 5 5 5 6 7 7 7 8 9 9 8 8 7 5 7 11 13 13 14 14 14 13 13 14 15 16 16 17 17 17 18 19 19 18 19 20 22 22 24 23 20 20 19 18 18 18 18 17 14 14 15 13 11 7 5 6 5 3 3 4 5
4 4 5 5 6 7 8 8 9 9 10 9 10 9 8 10 14 14 13 13 14 14 15 14 14 15 17 16 17 17 18 18 20 21 21 20 20 22 22 24 24 20 20 21 18 17 16 16 15 13 13 15 17 15 9 5 8 10 7 4 4 5
3 3 4 5 6 7 8 9 9 9 10 11 11 11 12 14 16 17 17 15 12 12 14 16 16 16 17 17 16 16 17 19 20 22 23 22 22 23 22 23 23 21 21 22 21 19 16 14 14 14 16 17 18 16 12 9 10 13 11 8 8 6
3 3 4 5 6 7 9 9 10 10 11 11 12 12 14 16 18 19 20 19 16 14 14 15 17 16 16 16 16 16 17 20 22 22 23 23 22 23 23 23 23 23 21 21 22 20 18 15 14 15 16 15 15 14 14 13 9 11 12 9 8 7
6 6 6 7 7 8 9 9 10 10 11 10 11 11 12 15 16 18 19 19 19 18 17 18 17 17 17 16 16 18 18 20 21 21 22 23 22 22 22 22 23 24 22 21 21 19 18 17 15 16 16 15 15 13 15 16 10 10 13 11 10 9
7 8 8 9 9 10 10 10 9 10 10 10 11 11 12 13 14 16 17 18 19 18 19 19 17 17 18 17 16 17 18 20 20 20 20 20 21 22 21 21 22 22 23 22 21 20 20 19 17 18 18 17 17 15 16 15 11 11 12 11 12 14
7 9 9 9 10 10 11 10 10 10 10 10 11 12 14 14 14 15 16 18 19 20 20 20 20 20 21 19 16 16 19 20 19 19 19 19 21 21 21 21 21 21 22 24 23 22 22 20 20 20 19 18 17 17 17 15 13 12 11 12 12 15
7 8 9 10 11 11 11 11 11 10 10 11 12 13 14 15 16 17 17 17 18 19 20 22 23 23 22 20 17 17 19 20 20 21 21 20 20 21 21 22 22 20 20 22 22 22 21 20 21 20 18 18 17 17 17 16 16 13 10 14 14 14
Wind_Direction
148 148 141 139 140 141 161 169 165 163 162 162 160 159 162 168 176 183 189 193 194 193 197 205 208 211 219 222 215 216 203 185 184 176 173 176 167 158 145 140 129 110 107 107 112 123 124 119 112 105 95 88 85 81 84 98 101 101 105 106 106 105
151 151 144 143 145 144 159 171 171 168 165 163 162 160 161 163 170 176 189 200 195 191 199 209 204 203 212 225 224 222 214 199 195 192 189 194 195 185 162 156 150 133 123 115 116 125 124 115 108 102 94 90 85 74 83 106 108 107 110 111 109 109
158 154 147 143 147 154 166 170 165 161 161 162 163 163 161 160 167 173 184 188 183 183 196 213 205 192 199 216 228 224 217 209 206 205 201 204 209 207 188 172 166 152 142 130 119 126 126 114 103 95 91 87 86 86 95 110 112 112 113 112 112 115
164 154 147 144 152 165 171 165 157 155 160 164 168 168 165 169 177 177 178 180 180 187 198 218 216 197 196 213 227 220 210 209 212 216 213 216 217 215 215 193 180 170 163 151 139 146 140 122 98 80 88 92 98 110 112 112 116 116 116 115 116 115
162 153 150 150 159 169 168 160 157 164 170 166 168 172 173 179 182 176 180 192 195 199 206 212 206 200 201 214 228 219 205 203 212 223 222 224 223 223 222 210 196 183 180 175 171 190 194 179 88 45 80 108 120 129 114 116 124 123 125 122 123 123
152 148 154 160 168 174 166 160 160 172 182 174 169 172 177 182 185 185 189 203 209 207 209 205 196 198 200 205 216 218 205 197 207 224 230 228 226 230 226 220 212 195 194 197 200 210 204 204 231 155 133 143 149 141 124 127 135 130 132 128 127 129
146 152 161 169 177 179 167 160 165 180 190 184 176 173 177 179 185 200 203 207 211 211 210 208 203 203 202 200 201 205 203 194 199 216 230 228 224 235 229 224 226 213 206 214 234 225 199 196 211 181 164 173 168 147 135 135 140 133 128 126 125 125
148 161 170 174 179 177 165 160 171 188 196 187 181 181 182 185 194 205 208 212 213 215 216 213 210 207 206 205 200 197 199 201 201 211 229 228 223 234 230 224 231 227 220 225 237 222 198 204 208 190 175 178 169 149 143 144 145 138 130 126 129 132
155 166 174 180 182 171 159 163 173 188 195 186 185 193 192 197 207 208 210 217 216 215 219 217 214 211 210 212 209 201 200 204 205 203 213 224 225 232 231 226 230 233 232 234 235 216 202 210 208 197 182 173 165 154 147 146 142 132 133 129 129 141
160 167 173 181 186 171 158 166 175 183 190 192 190 196 200 206 216 217 217 221 217 215 221 222 218 217 216 217 217 211 206 208 211 202 199 212 225 233 231 224 227 235 236 237 233 213 199 212 212 200 186 176 168 157 146 143 141 136 142 141 130 141
156 160 167 178 185 176 158 163 174 174 180 190 188 194 207 216 219 221 224 224 221 220 225 228 226 226 223 222 222 219 212 211 216 211 203 210 223 231 229 225 232 235 235 236 228 212 203 215 219 205 188 176 165 160 158 152 147 149 159 159 134 130
149 150 159 176 186 179 157 165 173 164 172 184 185 198 215 218 213 215 222 223 224 223 225 227 228 231 227 224 225 223 220 217 218 216 208 210 219 224 224 232 242 236 232 236 227 215 208 215 223 212 192 177 167 165 163 153 146 155 170 170 142 124
148 151 160 177 189 182 169 180 180 167 178 184 184 193 204 216 216 214 216 216 219 221 223 225 225 228 225 222 225 225 224 220 219 217 213 214 219 221 218 229 244 238 233 238 227 216 214 218 224 216 196 180 171 168 164 156 150 156 164 164 157 133
156 156 163 176 182 182 183 185 177 178 188 184 184 182 183 211 232 228 212 202 212 219 224 227 226 224 220 218 223 224 222 219 218 218 216 216 219 222 215 218 238 245 236 239 227 213 216 220 222 216 197 181 168 161 161 162 155 151 156 159 164 150
159 157 164 173 179 188 195 183 170 182 192 188 190 177 165 185 226 234 209 188 208 216 219 227 230 225 218 215 216 215 217 219 218 217 218 220 221 221 214 211 232 246 237 238 234 218 216 221 223 214 189 177 166 158 158 161 156 152 154 156 158 155
153 156 166 173 181 189 191 182 175 183 194 193 183 169 159 166 195 216 203 194 215 216 213 220 229 226 219 216 210 203 210 217 217 218 221 222 221 220 214 211 224 239 238 237 237 226 226 237 236 202 172 166 162 160 162 159 155 157 158 150 151 158
153 160 165 169 181 187 182 185 185 188 200 201 183 178 165 160 175 200 206 213 222 220 214 212 219 223 221 219 213 208 210 212 216 218 221 220 218 220 217 217 222 229 239 241 240 235 241 257 241 185 160 157 157 162 171 173 165 161 162 152 148 157
152 157 160 168 186 193 186 187 187 191 202 201 191 190 167 161 174 200 207 215 221 220 218 217 217 219 223 222 213 213 214 211 213 215 217 217 218 224 223 224 227 226 237 249 252 244 242 264 241 187 159 159 170 188 180 178 173 158 159 162 157 154
145 152 159 168 171 175 182 188 193 198 203 199 194 194 177 168 180 196 199 207 213 209 212 222 222 221 226 223 213 211 213 213 216 216 220 223 224 229 229 228 229 227 237 250 250 235 203 245 241 207 197 178 182 218 185 171 173 161 157 164 165 158
145 153 159 165 165 175 186 190 199 205 208 210 205 205 195 183 191 200 200 202 206 206 209 216 218 218 220 219 215 213 212 215 221 219 222 229 229 231 231 229 230 231 240 247 242 231 204 207 216 201 198 187 188 211 181 172 176 167 161 155 154 159
144 150 156 166 177 191 192 192 203 208 211 214 208 208 204 201 202 203 201 199 205 214 211 210 212 214 214 214 217 220 219 217 221 222 224 230 231 232 231 231 233 235 241 241 228 225 211 191 183 190 190 181 193 201 175 174 174 168 170 163 157 162
145 152 161 171 181 192 199 201 201 195 204 213 203 206 205 204 203 199 202 203 207 213 210 209 213 216 217 216 218 222 223 220 221 223 226 230 231 231 231 233 237 238 237 231 218 213 206 183 177 200 186 160 198 224 190 186 180 171 173 173 176 180
149 156 170 186 188 192 208 216 207 192 215 226 209 210 203 198 197 198 204 204 206 213 212 214 218 218 218 219 221 222 221 223 224 226 228 231 232 233 233 234 237 237 233 227 218 207 203 195 191 194 182 155 188 206 208 209 198 189 184 178 187 194
149 161 174 197 203 197 207 211 210 215 231 237 230 223 210 203 201 200 202 201 206 213 214 216 216 216 218 221 224 223 223 225 225 227 230 231 231 231 233 236 237 237 232 226 221 210 205 205 195 182 176 180 168 169 216 206 195 196 192 184 188 201
152 177 180 201 209 204 211 208 208 222 231 234 231 217 213 212 204 202 205 206 210 214 216 215 212 213 218 222 222 223 228 230 227 225 227 230 232 232 233 235 237 238 233 225 221 213 208 213 203 186 183 191 154 195 225 169 170 189 192 189 192 199
170 194 201 221 225 219 228 228 223 232 233 230 224 213 213 212 202 204 210 214 218 219 218 216 213 213 217 225 227 225 228 231 230 228 227 229 230 231 234 232 230 235 235 226 221 217 208 214 213 201 208 230 183 180 164 150 153 172 188 193 196 195
218 233 234 238 238 231 237 243 241 249 255 258 256 246 232 207 205 218 215 215 219 218 216 217 220 217 214 222 228 229 230 229 229 230 228 228 228 229 229 227 225 228 231 225 225 229 216 206 206 208 219 230 216 166 143 155 165 138 166 195 198 195
240 248 248 248 248 245 247 255 253 252 261 270 275 279 278 243 232 239 229 222 223 218 215 220 225 223 218 219 221 226 230 227 226 227 224 226 230 229 226 224 223 224 228 226 224 230 225 206 199 207 218 220 224 213 175 186 204 158 151 176 178 188
232 238 247 249 254 258 257 264 271 269 269 273 278 281 282 261 241 239 234 229 228 223 222 230 232 230 227 222 221 223 226 225 225 226 226 226 227 226 224 224 220 218 223 226 224 226 232 225 211 208 209 207 213 214 196 214 215 168 149 155 155 169
232 237 248 246 251 263 262 264 271 276 282 285 286 286 278 258 251 250 248 242 241 237 233 237 239 237 233 227 226 225 224 224 223 226 229 228 225 224 223 220 216 211 212 217 220 219 224 226 217 207 203 200 200 199 196 209 200 182 157 135 158 171
230 239 252 249 254 264 265 265 265 271 281 283 281 284 279 265 263 270 275 270 265 259 248 242 243 242 237 231 230 230 230 229 226 225 225 224 225 226 222 217 213 207 206 209 210 208 213 219 212 204 208 207 200 196 198 214 200 190 181 158 167 167
253 264 274 273 273 272 269 270 269 270 275 275 276 284 285 277 273 277 280 283 285 278 264 252 248 248 245 239 236 236 237 237 235 231 226 224 225 222 219 214 208 201 199 202 204 202 205 209 202 199 206 209 207 203 207 226 216 194 192 186 170 160
330 319 307 299 294 289 285 283 281 280 280 283 287 289 285 281 283 283 281 283 284 280 275 265 256 257 261 259 249 243 243 242 241 240 236 231 224 218 215 212 208 204 201 201 200 199 200 199 196 197 199 200 204 205 206 216 212 190 197 195 169 169
357 345 334 325 314 308 304 300 299 299 302 307 308 302 291 286 289 289 287 285 280 277 278 275 271 268 269 269 258 248 247 247 245 244 241 233 223 218 215 214 211 206 204 201 196 194 194 192 193 194 191 189 195 204 210 212 204 191 201 197 181 183
359 351 345 338 330 325 321 319 320 317 320 323 319 314 306 298 294 291 292 291 287 283 281 283 287 281 270 267 267 261 254 250 246 243 241 234 225 220 215 212 209 205 203 201 196 192 190 190 193 194 192 191 192 198 207 207 204 205 206 199 189 187
2 354 349 345 340 335 330 329 328 323 322 322 318 316 311 306 302 298 296 294 292 289 287 288 289 284 275 268 271 272 262 255 250 244 240 235 228 222 215 210 208 207 206 202 196 192 191 192 194 195 195 196 198 204 206 204 206 210 203 203 197 183
5 360 354 350 345 341 336 332 330 326 321 318 314 309 305 303 304 303 299 296 293 291 290 289 286 285 282 271 263 262 262 261 256 249 243 236 230 222 213 210 207 206 203 199 195 192 191 191 190 191 196 202 209 212 208 203 205 202 190 203 210 190